This is the latest recevied weather packets stored in our database for station/object KA1BMF-13. If no packets are shown the sender has not sent any weather packets the latest 10 day(s).
| Time | Temp. | Humidity | Pressure | Rain* | Wind** | Luminosity | Snow |
|---|---|---|---|---|---|---|---|
| 1788615617 | 20.56° C | 80% | 1010 hPa | 0 mm | - | 573 W/m² | - |
| 1788615023 | 20° C | 83% | 1010.1 hPa | 0 mm | - | 200 W/m² | - |
| 1788614424 | 20° C | 83% | 1010.1 hPa | 0 mm | - | 181 W/m² | - |
| 1788613824 | 19.44° C | 86% | 1010.1 hPa | 0 mm | - | 305 W/m² | - |
| 1788613224 | 18.89° C | 87% | 1010.2 hPa | 0 mm | - | 75 W/m² | - |
| 1788612624 | 18.89° C | 88% | 1010.3 hPa | 0 mm | - | 111 W/m² | - |
| 1788612016 | 18.33° C | 90% | 1010.4 hPa | 0 mm | - | 93 W/m² | - |
| 1788611419 | 18.33° C | 92% | 1010.4 hPa | 0 mm | - | 57 W/m² | - |
| 1788610825 | 17.78° C | 92% | 1010.4 hPa | 0 mm | - | 42 W/m² | - |
| 1788610217 | 17.78° C | 93% | 1010.4 hPa | 0 mm | - | 56 W/m² | - |
| 1788609617 | 17.22° C | 93% | 1010.4 hPa | 0 mm | - | 65 W/m² | - |
| 1788609017 | 17.22° C | 93% | 1010.2 hPa | 0 mm | - | 37 W/m² | - |
| 1788608420 | 16.67° C | 94% | 1010.1 hPa | 0 mm | - | 31 W/m² | - |
| 1788607817 | 16.67° C | 95% | 1010 hPa | 0 mm | - | 27 W/m² | - |
| 1788607218 | 16.11° C | 95% | 1009.9 hPa | 0 mm | - | 28 W/m² | - |
| 1788606618 | 16.11° C | 95% | 1009.9 hPa | 0 mm | - | 22 W/m² | - |
| 1788606018 | 16.11° C | 95% | 1009.8 hPa | 0 mm | - | 18 W/m² | - |
| 1788605418 | 16.11° C | 95% | 1009.7 hPa | 0 mm | - | 14 W/m² | - |
| 1788604818 | 16.11° C | 95% | 1009.7 hPa | 0 mm | - | 9 W/m² | - |
| 1788604218 | 16.11° C | 95% | 1009.7 hPa | 0 mm | - | 5 W/m² | - |
| 1788603619 | 16.11° C | 94% | 1009.5 hPa | 0 mm | - | 2 W/m² | - |
| 1788603048 | 16.11° C | 94% | 1009.5 hPa | 0 mm | - | 0 W/m² | - |
| 1788602419 | 16.11° C | 94% | 1009.4 hPa | 0 mm | - | 0 W/m² | - |
| 1788601816 | 16.11° C | 94% | 1009.3 hPa | 0 mm | - | 0 W/m² | - |
| 1788601220 | 16.11° C | 94% | 1009.2 hPa | 0 mm | - | 0 W/m² | - |
* Rain latest hour (hover to see other rain measurements)
** Current wind speed in m/s (hover to see current wind gust speed)